Time,TemperatureF,DewpointF,PressureIn,WindDirection,WindDirectionDegrees,WindSpeedMPH,WindSpeedGustMPH,Humidity,HourlyPrecipIn,Conditions,Clouds,dailyrainin,SolarRadiationWatts/m^2,SoftwareType,DateUTC
2013-05-15 10:23:00,73.5,64.0,30.14,SE,127,1.0,10.0,73,0.00,,,0.00,420,weatherlink.com 1.10,2013-05-15 15:23:00,
2013-05-15 10:38:00,73.9,64.0,30.14,South,173,2.0,8.0,72,0.00,,,0.00,466,weatherlink.com 1.10,2013-05-15 15:38:00,
2013-05-15 10:53:00,74.9,65.0,30.14,SW,232,0.0,6.0,71,0.00,,,0.00,489,weatherlink.com 1.10,2013-05-15 15:53:00,
2013-05-15 11:08:00,75.3,63.0,30.13,SSW,194,2.0,9.0,65,0.00,,,0.00,689,weatherlink.com 1.10,2013-05-15 16:08:00,
2013-05-15 11:23:00,76.3,65.0,30.13,South,179,1.0,8.0,67,0.00,,,0.00,559,weatherlink.com 1.10,2013-05-15 16:23:00,
2013-05-15 11:53:00,77.4,64.0,30.12,SW,219,1.0,7.0,63,0.00,,,0.00,677,weatherlink.com 1.10,2013-05-15 16:53:00,
2013-05-15 12:08:00,77.8,64.0,30.12,ESE,117,1.0,6.0,63,0.00,,,0.00,768,weatherlink.com 1.10,2013-05-15 17:08:00,
2013-05-15 12:23:00,79.9,64.0,30.11,SE,130,1.0,12.0,59,0.00,,,0.00,1035,weatherlink.com 1.10,2013-05-15 17:23:00,
2013-05-15 12:38:00,80.5,64.0,30.10,WNW,288,3.0,15.0,57,0.00,,,0.00,777,weatherlink.com 1.10,2013-05-15 17:38:00,
2013-05-15 12:53:00,80.1,62.0,30.09,SSW,207,1.0,13.0,54,0.00,,,0.00,599,weatherlink.com 1.10,2013-05-15 17:53:00,
2013-05-15 13:08:00,80.3,63.0,30.08,SW,219,3.0,14.0,55,0.00,,,0.00,729,weatherlink.com 1.10,2013-05-15 18:08:00,
2013-05-15 13:23:00,80.4,62.0,30.08,SSW,205,5.0,9.0,53,0.00,,,0.00,571,weatherlink.com 1.10,2013-05-15 18:23:00,
2013-05-15 13:53:00,79.0,61.0,30.08,SW,231,4.0,11.0,55,0.00,,,0.00,332,weatherlink.com 1.10,2013-05-15 18:53:00,
2013-05-15 14:08:00,78.8,63.0,30.08,SSW,212,2.0,10.0,58,0.00,,,0.00,332,weatherlink.com 1.10,2013-05-15 19:08:00,
2013-05-15 14:38:00,78.3,64.0,30.06,South,177,0.0,5.0,61,0.00,,,0.00,239,weatherlink.com 1.10,2013-05-15 19:38:00,
2013-05-15 14:53:00,78.4,65.0,30.05,SSW,200,3.0,5.0,63,0.00,,,0.00,554,weatherlink.com 1.10,2013-05-15 19:53:00,
2013-05-15 15:09:00,78.8,64.0,30.05,SSW,198,0.0,9.0,60,0.00,,,0.00,295,weatherlink.com 1.10,2013-05-15 20:09:00,
2013-05-15 15:24:00,78.7,65.0,30.04,SE,140,2.0,6.0,62,0.00,,,0.00,346,weatherlink.com 1.10,2013-05-15 20:24:00,
2013-05-15 15:39:00,78.3,63.0,30.03,SSE,155,2.0,9.0,60,0.00,,,0.00,279,weatherlink.com 1.10,2013-05-15 20:39:00,
2013-05-15 15:54:00,77.7,63.0,30.03,WSW,238,0.0,8.0,61,0.00,,,0.00,111,weatherlink.com 1.10,2013-05-15 20:54:00,
2013-05-15 16:09:00,76.4,62.0,30.02,SW,219,1.0,6.0,61,0.00,,,0.00,88,weatherlink.com 1.10,2013-05-15 21:09:00,
2013-05-15 16:24:00,75.6,63.0,30.02,SW,220,0.0,4.0,64,0.00,,,0.00,67,weatherlink.com 1.10,2013-05-15 21:24:00,
2013-05-15 16:39:00,74.7,63.0,30.02,South,184,1.0,2.0,66,0.00,,,0.00,62,weatherlink.com 1.10,2013-05-15 21:39:00,
2013-05-15 17:09:00,73.3,63.0,30.01,SSW,200,0.0,1.0,70,0.00,,,0.00,63,weatherlink.com 1.10,2013-05-15 22:09:00,
2013-05-15 17:24:00,73.1,63.0,30.00,South,174,0.0,2.0,71,0.00,,,0.00,42,weatherlink.com 1.10,2013-05-15 22:24:00,
2013-05-15 17:54:00,72.6,64.0,29.99,South,187,0.0,0.0,74,0.00,,,0.00,32,weatherlink.com 1.10,2013-05-15 22:54:00,
2013-05-15 18:24:00,71.8,64.0,29.98,South,170,0.0,0.0,76,0.00,,,0.00,21,weatherlink.com 1.10,2013-05-15 23:24:00,
2013-05-15 18:39:00,71.5,64.0,29.98,South,170,0.0,0.0,78,0.00,,,0.00,16,weatherlink.com 1.10,2013-05-15 23:39:00,
2013-05-15 19:09:00,70.9,64.0,29.98,South,169,0.0,0.0,80,0.00,,,0.00,16,weatherlink.com 1.10,2013-05-16 00:09:00,
2013-05-15 19:24:00,70.6,64.0,29.98,South,170,0.0,0.0,80,0.00,,,0.00,5,weatherlink.com 1.10,2013-05-16 00:24:00,
2013-05-15 19:54:00,70.0,64.0,29.98,South,169,0.0,1.0,81,0.00,,,0.00,0,weatherlink.com 1.10,2013-05-16 00:54:00,
2013-05-15 20:09:00,69.7,63.0,29.98,South,169,0.0,0.0,80,0.00,,,0.00,0,weatherlink.com 1.10,2013-05-16 01:09:00,
2013-05-15 20:24:00,69.6,63.0,29.97,South,170,0.0,1.0,79,0.00,,,0.00,0,weatherlink.com 1.10,2013-05-16 01:24:00,
2013-05-15 20:54:00,68.9,63.0,29.98,South,170,0.0,2.0,80,0.00,,,0.00,0,weatherlink.com 1.10,2013-05-16 01:54:00,
2013-05-15 21:09:00,68.9,62.0,29.96,South,169,0.0,1.0,79,0.00,,,0.00,0,weatherlink.com 1.10,2013-05-16 02:09:00,
2013-05-15 21:24:00,68.9,62.0,29.98,SW,214,1.0,4.0,79,0.00,,,0.00,0,weatherlink.com 1.10,2013-05-16 02:24:00,
2013-05-15 21:39:00,68.5,62.0,29.98,SSW,213,0.0,1.0,79,0.00,,,0.00,0,weatherlink.com 1.10,2013-05-16 02:39:00,
2013-05-15 21:54:00,67.9,62.0,29.97,SW,214,0.0,0.0,80,0.00,,,0.00,0,weatherlink.com 1.10,2013-05-16 02:54:00,
2013-05-15 22:09:00,67.8,61.0,29.98,South,181,0.0,2.0,80,0.00,,,0.00,0,weatherlink.com 1.10,2013-05-16 03:09:00,
2013-05-15 22:24:00,67.8,62.0,29.98,South,181,0.0,0.0,81,0.00,,,0.00,0,weatherlink.com 1.10,2013-05-16 03:24:00,
2013-05-15 22:39:00,67.7,62.0,29.99,SSW,198,0.0,2.0,81,0.00,,,0.00,0,weatherlink.com 1.10,2013-05-16 03:39:00,
2013-05-15 22:54:00,67.6,62.0,30.00,SSE,147,0.0,0.0,81,0.00,,,0.00,0,weatherlink.com 1.10,2013-05-16 03:54:00,
2013-05-15 23:09:00,67.5,62.0,29.99,SE,146,0.0,0.0,82,0.00,,,0.00,0,weatherlink.com 1.10,2013-05-16 04:09:00,
2013-05-15 23:24:00,67.5,62.0,29.99,SSE,157,0.0,2.0,82,0.00,,,0.00,0,weatherlink.com 1.10,2013-05-16 04:24:00,
2013-05-15 23:39:00,67.7,62.0,30.00,ESE,117,0.0,2.0,82,0.00,,,0.00,0,weatherlink.com 1.10,2013-05-16 04:39:00,
2013-05-15 23:54:00,67.7,62.0,29.99,SE,137,0.0,2.0,82,0.00,,,0.00,0,weatherlink.com 1.10,2013-05-16 04:54:00,